Regional Weather Roundup
Issued by NWS

Home | Current Version | Previous Version | Graphics & Text | Print | Product List | Glossary On
Versions: 1 2 3 4 5 6 7 8 9 10 11 12 13 14 15 16 17 18 19 20 21 22 23 24 25 26 27 28 29 30 31 32 33 34 35 36 37 38 39 40 41 42 43 44 45 46 47 48 49 50
000
ASUS45 KBOU 300007
RWRCO

WEATHER ROUNDUP FOR COLORADO
NATIONAL WEATHER SERVICE DENVER/BOULDER CO
500 PM MST THU JAN 29 2015

NOTE: "FAIR" INDICATES FEW OR NO CLOUDS BELOW 12000 FEET WITH NO
SIGNIFICANT WEATHER AND/OR OBSTRUCTIONS TO VISIBILITY.

COZ001>005-013-030-031-300100-
...NORTHWEST COLORADO...

CITY           SKY/WX    TMP DP  RH WIND       PRES   REMARKS
CRAIG          MOCLDY    35  30  82 SW3       30.31S
HAYDEN         MOCLDY    37  28  70 SW6       30.31S
MEEKER         CLOUDY    38  28  67 CALM      30.29F
MOUNT WERNER   NOT AVBL
STEAMBOAT SPGS MOCLDY    37  26  62 CALM      30.30S
WALDEN         MOCLDY    34  23  64 CALM      30.34F
$$

COZ006>008-011-300100-
...WEST CENTRAL VALLEYS...

CITY           SKY/WX    TMP DP  RH WIND       PRES   REMARKS
GRAND JUNCTION CLOUDY    50  29  44 S5        30.26S
MONTROSE       CLOUDY    48  27  44 CALM      30.30S
EAGLE          CLEAR     46  25  42 VRB5      30.31S
RIFLE          CLOUDY    49  26  41 SW3       30.26F
DELTA          CLOUDY    52  27  38 CALM      30.28S
NUCLA          CLOUDY    46  28  49 W3        30.32S
$$

COZ017>023-064>068-300100-
...SOUTHWEST COLORADO...

CITY           SKY/WX    TMP DP  RH WIND       PRES   REMARKS
DURANGO        CLOUDY    43  33  68 NE9       30.34S
CORTEZ         CLOUDY    50  30  46 SE18G25   30.29S
PAGOSA SPRINGS CLOUDY    43  28  54 CALM      30.37F
TELLURIDE      CLOUDY    39  25  56 S7        30.35S
WOLF CREEK PAS NOT AVBL
$$

COZ009-010-012-014-032>034-037-058>063-300100-
...CENTRAL COLORADO...

CITY           SKY/WX    TMP DP  RH WIND       PRES   REMARKS
ASPEN          CLOUDY    38  23  55 NW5       30.30S
BUENA VISTA    CLOUDY    34  23  65 SE6       30.42S WCI  29
COPPER MTN     MOCLDY    30  14  51 S15       30.41S WCI  19
BERTHOUD PASS  FAIR      18  12  79 SE18      30.42F WCI   2
COTTONWOOD PAS CLOUDY    30  23  74 SE3       30.42F
GUNNISON       CLOUDY    28  19  69 CALM      30.38S
KREMMLING      PTCLDY    34  27  75 E3        30.34S
LEADVILLE      CLOUDY    23  21  92 S12       30.38S WCI  12
MONARCH PASS   CLOUDY    19  18  93 MISG      30.52S
SALIDA         MOCLDY    37  23  57 SE5       30.50S
SUNLIGHT       CLOUDY    32  21  64 CALM      30.39F
WILKERSON PASS CLOUDY    21  19  93 SW5       30.45S FOG     WCI  15
$$

COZ069>075-300100-
...SAN LUIS VALLEY/SANGRE DE CRISTO MOUNTAINS...

CITY           SKY/WX    TMP DP  RH WIND       PRES   REMARKS
ALAMOSA        CLOUDY    41  27  57 SE9       30.36F
LA VETA PASS   CLOUDY    23  19  86 NE3       30.43S
SAGUACHE       CLOUDY    36  28  75 E5        30.40S
$$

COZ035-036-038>040-300100-
...NORTHERN COLORADO FRONT RANGE...

CITY           SKY/WX    TMP DP  RH WIND       PRES   REMARKS
DENVER INTL AP MOCLDY    41  26  55 SE12      30.39F
DMNS CITY PARK   N/A     43  26  49 E12       30.38S
AURORA         MOCLDY    41  27  58 SE10      30.39F
FRONT RANGE AP NOT AVBL
ERIE MUNI ARPT PTCLDY    45  24  43 SE6       30.39S
BOULDER MUN AP PTCLDY    45  27  49 SE5       30.38F
CENTENNIAL     MOCLDY    42  24  49 SE12      30.38S
BROOMFIELD     PTCLDY    45  27  49 E3        30.39F
FORT COLLINS   PTCLDY    43  25  49 S7        30.40S
LONGMONT       PTCLDY    47  26  43 S5        30.41S
$$

COZ041-046-047-076>085-087-088-300100-
...PIKES PEAK/PALMER DIVIDE AND SOUTHERN FOOTHILLS...

CITY           SKY/WX    TMP DP  RH WIND       PRES   REMARKS
COLO. SPRINGS  CLOUDY    40  21  46 S14       30.43S
A. F. ACADEMY  MOCLDY    38  18  43 S14       30.41S
ELLICOTT       MOCLDY   N/A N/A N/A S9        30.43S
FALCON         MOCLDY    36  20  52 S8        30.43F
FORT CARSON    MOCLDY    41  22  47 S10       30.42S
LIMON          PTCLDY    40  23  50 S7        30.43S
MONUMENT HILL  MOCLDY    34  21  60 S14       30.39F WCI  24
TRINIDAD       CLOUDY    40  25  55 E7        30.44F
$$

COZ042>045-048>051-090-091-300100-
...NORTHEAST COLORADO...

CITY           SKY/WX    TMP DP  RH WIND       PRES   REMARKS
GREELEY ARPT   PTCLDY    45  21  39 SE9       30.39S
AKRON          CLEAR     41  17  38 E6        30.43S
BURLINGTON     PTCLDY    42  14  32 NE6       30.45F
WRAY           CLEAR     39  16  39 NE6       30.46R
STERLING       CLEAR     43  21  42 CALM      30.42S
HOLYOKE        CLEAR     37  18  44 E6        30.45S
FORT MORGAN    CLEAR     43  22  43 S5        30.43S
$$

COZ086-089-092>099-300100-
...SOUTHEAST COLORADO...

CITY           SKY/WX    TMP DP  RH WIND       PRES   REMARKS
PUEBLO         PTCLDY    46  22  38 S10       30.43S
LA JUNTA       MOCLDY    47  24  40 SE6       30.44F
LAMAR          PTCLDY    48  22  35 CALM      30.43F
SPRINGFIELD      N/A     43  21  41 NE6       30.46S
$$



USA.gov is the U.S. government's official web portal to all federal, state and local government web resources and services.